Weather History for Idaho Falls, ID

Change the Weather History Date:

Thursday, August 29, 2013

  Actual Average Record
Temperature  
Mean Temperature 73 °F 64 °F  
Max Temperature 92 °F 82 °F 95 °F (1990)
Min Temperature 53 °F 46 °F 32 °F (1960)
Degree Days  
Heating Degree Days 0 3  
Month to date heating degree days 0 31  
Since 1 June heating degree days 100 211  
Since 1 July heating degree days 0 58  
Cooling Degree Days 8 2  
Month to date cooling degree days 159 92  
Year to date cooling degree days 450 247  
Since 1 June cooling degree days 446 245  
Growing Degree Days 22 (Base 50)    
Moisture  
Dew Point 50 °F    
Average Humidity 55    
Maximum Humidity 89    
Minimum Humidity 21    
Precipitation  
Precipitation 0.00 in 0.03 in 1.19 in (1971)
Month to date precipitation 0.27 0.50  
Year to date precipitation 2.70 6.94  
Sea Level Pressure  
Sea Level Pressure 30.04 in    
Wind  
Wind Speed 7 mph (WNW)    
Max Wind Speed 23 mph    
Max Gust Speed 29 mph    
Visibility 10 miles    
Events      
T = Trace of Precipitation, MM = Missing Value Source: NWS Daily Summary

Daily Weather History Graph

Daily Weather History Graph

Search for Another Location

Airport:

Trip Planner

Search our weather history database for the weather conditions in past years. The results will help you decide how hot, cold, wet, or windy it might be!

Date:

Astronomy

Aug. 29, 2013 Rise Set
Actual Time 6:49 AM MDT 8:08 PM MDT
Civil Twilight 6:19 AM MDT 8:37 PM MDT
Nautical Twilight 5:43 AM MDT 9:13 PM MDT
Astronomical Twilight 5:05 AM MDT 9:51 PM MDT
Moon 12:38 AM MDT (8/29) 3:45 PM MDT (8/29)
Length of Visible Light 14h 18m
Length of Day
13h 19m
Last Quarter, 37% of the Moon is Illuminated
Aug 29
Last Quarter
Sep 5
New
Sep 12
First Quarter
Sep 19
Full
Sep 26
Last Quarter

Hourly Weather History & Observations

Time (MDT) Temp. Heat Index Dew Point Humidity Pressure Visibility Wind Dir Wind Speed Gust Speed Precip Events Conditions
12:53 AM 55.9 °F - 52.0 °F 87% 30.03 in 10.0 mi NNW 4.6 mph - N/A   Clear
1:53 AM 55.9 °F - 52.0 °F 87% 30.02 in 10.0 mi NNW 5.8 mph - N/A   Clear
2:53 AM 55.9 °F - 51.1 °F 84% 30.04 in 10.0 mi North 6.9 mph - N/A   Clear
3:53 AM 54.0 °F - 50.0 °F 86% 30.08 in 10.0 mi NNW 4.6 mph - N/A   Clear
4:53 AM 54.0 °F - 50.0 °F 86% 30.09 in 10.0 mi North 5.8 mph - N/A   Clear
5:53 AM 54.0 °F - 50.0 °F 86% 30.07 in 10.0 mi North 3.5 mph - N/A   Partly Cloudy
6:53 AM 55.0 °F - 50.0 °F 83% 30.08 in 10.0 mi North 3.5 mph - N/A   Scattered Clouds
7:53 AM 55.0 °F - 51.1 °F 86% 30.09 in 10.0 mi Calm Calm - N/A   Clear
8:53 AM 63.0 °F - 52.0 °F 67% 30.10 in 10.0 mi North 6.9 mph - N/A   Partly Cloudy
9:53 AM 69.1 °F - 54.0 °F 58% 30.09 in 10.0 mi NW 4.6 mph - N/A   Scattered Clouds
10:53 AM 75.9 °F - 52.0 °F 43% 30.10 in 10.0 mi WNW 3.5 mph - N/A   Mostly Cloudy
11:53 AM 78.1 °F - 50.0 °F 37% 30.09 in 10.0 mi Variable 3.5 mph - N/A   Mostly Cloudy
12:53 PM 82.0 °F 81.2 °F 53.1 °F 37% 30.07 in 10.0 mi Variable 3.5 mph - N/A   Clear
1:53 PM 87.1 °F - 48.9 °F 27% 30.04 in 10.0 mi South 9.2 mph - N/A   Scattered Clouds
2:53 PM 89.1 °F - 46.9 °F 23% 30.01 in 10.0 mi SW 15.0 mph 19.6 mph N/A   Clear
3:53 PM 90.0 °F - 46.9 °F 23% 30.00 in 10.0 mi SSW 17.3 mph 25.3 mph N/A   Clear
4:53 PM 90.0 °F - 45.0 °F 21% 29.99 in 10.0 mi South 17.3 mph 23.0 mph N/A   Clear
5:53 PM 89.1 °F - 45.0 °F 22% 29.99 in 10.0 mi SSW 17.3 mph - N/A   Clear
6:53 PM 88.0 °F - 46.9 °F 24% 29.98 in 10.0 mi South 11.5 mph - N/A   Clear
7:53 PM 84.0 °F - 48.9 °F 29% 29.99 in 10.0 mi South 10.4 mph - N/A   Clear
8:53 PM 80.1 °F - 46.9 °F 31% 30.00 in 10.0 mi South 9.2 mph - N/A   Clear
9:53 PM 73.0 °F - 48.9 °F 42% 30.01 in 10.0 mi SSW 3.5 mph - N/A   Clear
10:53 PM 63.0 °F - 50.0 °F 63% 30.02 in 10.0 mi NNW 3.5 mph - N/A   Clear
11:53 PM 62.1 °F - 52.0 °F 70% 30.04 in 10.0 mi Calm Calm - N/A   Clear